{"data":{"norad_id":60916,"intl_designator":"2024-154P","name":"STARLINK-32371","alt_names":[],"object_type":"PAYLOAD","status":"ACTIVE","operator":null,"country":"US","launch_date":"2024-08-31","launch_site_code":"AFETR","launch_vehicle":null,"mission":null,"orbit_class":"UNKNOWN","rcs_meters":null,"size_class":null,"mass_kg":null,"dimensions":null,"purposes":["comms"],"wikipedia_slug":null,"has_3d_model":false,"image_url":null,"decayed_at":null,"tle_current":{"epoch":"2026-09-21T20:04:33.275136Z","epoch_age_seconds":73094,"freshness":"FRESH","line1":"1 60916U 24154P   26264.83649624 -.00000114  00000+0  81046-5 0  9990","line2":"2 60916  53.1597  91.5035 0001375  90.8963 269.2196 15.31698385116381","mean_motion":15.31698385,"eccentricity":0.0001375,"inclination_deg":53.1597,"raan_deg":91.5035,"arg_perigee_deg":90.8963,"mean_anomaly_deg":269.2196,"bstar":8.1046e-6,"rev_number":11638,"period_min":94.013287087196,"perigee_km":469.80308821204,"apogee_km":471.68653070964,"semimajor_km":6848.8818094608,"source":"CELESTRAK","updated_at":"2026-09-22T09:00:49.285641Z"}}}